Theta_e
329 333 336 337 340 342 343 344 344 345 346 347 347 347 348 348 348 348 347 347 346 344 344 344 342 342 341 342 342 342 343 344 347 348 351 353 357 358 359 360 359 361 360 356 355 360 355 354 355 357 357 355 352 350 349 350 350 350 354 356 355 345 345 349 350 345 334 332 332 332 337 342 350 343 339 338 339 340 340 343 346 346 345 345 349
329 332 335 338 339 341 342 342 345 342 344 346 345 346 347 348 347 347 347 348 347 346 345 344 343 343 341 341 341 342 343 346 345 348 351 356 356 357 359 358 358 360 362 358 359 357 354 354 354 356 356 358 355 356 352 361 358 354 356 351 353 349 345 351 353 340 336 328 328 329 333 335 344 345 342 338 337 337 337 338 341 342 342 342 343
328 332 335 337 338 340 340 341 342 344 344 345 345 345 346 347 347 347 348 348 347 347 345 343 345 346 344 343 344 344 346 348 347 350 355 355 357 358 358 357 358 359 361 363 359 357 355 354 354 352 354 358 359 354 353 354 354 353 354 352 348 348 353 356 353 341 336 338 333 330 324 326 333 332 338 343 342 336 334 335 339 339 340 340 340
328 332 334 336 337 338 338 339 341 342 343 343 343 344 346 347 346 347 348 349 347 347 349 345 349 347 346 346 347 347 346 353 350 352 354 356 356 358 358 358 359 359 361 362 360 359 356 354 354 355 355 360 355 351 350 354 353 352 354 358 349 343 346 348 358 349 341 330 328 329 324 325 322 326 330 339 343 340 334 333 338 338 338 337 339
328 332 334 335 336 336 337 339 340 340 341 342 343 344 346 346 347 348 348 348 348 351 349 348 354 347 347 348 351 350 351 350 349 349 353 356 356 355 357 358 359 360 361 361 361 358 357 355 356 356 353 357 356 349 350 352 353 353 352 355 352 345 345 346 349 353 349 341 334 328 324 324 323 325 333 331 338 337 337 336 337 338 335 334 338
330 332 334 335 336 336 337 338 339 340 340 342 344 345 346 346 347 348 348 348 348 350 349 351 352 346 345 344 342 342 343 345 346 347 350 352 354 357 358 359 360 359 360 361 361 360 356 357 355 357 356 357 358 354 352 352 350 351 354 354 353 351 347 342 342 350 353 352 339 331 329 326 326 331 328 323 334 346 343 342 334 335 335 336 337
331 334 335 335 335 336 337 337 339 339 340 343 344 345 346 347 347 348 348 348 348 349 349 353 347 346 345 344 343 342 342 343 347 351 352 353 356 356 357 358 359 359 359 359 361 360 357 356 355 357 356 354 360 355 352 353 354 353 358 353 352 358 346 343 345 347 344 347 353 354 354 346 338 333 330 332 326 331 336 338 337 338 339 334 335
330 332 334 335 336 336 336 338 339 340 341 343 344 345 346 347 347 347 348 350 348 349 349 351 347 346 345 344 345 343 342 343 345 349 352 355 354 356 356 356 357 359 358 357 360 360 359 356 356 356 356 357 362 362 355 354 354 356 360 355 359 356 347 346 346 345 340 342 352 351 352 348 342 342 337 333 329 328 329 337 337 337 338 339 342
331 332 333 334 335 337 338 338 340 341 342 342 343 345 346 347 348 347 347 349 348 348 349 349 350 346 346 345 345 346 344 345 348 354 352 356 353 353 353 354 354 356 357 357 359 360 364 359 357 356 355 355 365 361 359 357 355 354 355 353 352 355 353 351 347 347 342 343 342 343 343 343 343 343 343 340 333 329 328 331 331 335 334 335 337
332 334 334 335 336 338 340 340 340 341 343 344 344 345 347 347 347 347 346 347 348 347 350 348 349 350 346 346 345 345 348 347 348 349 349 351 351 351 352 351 353 354 356 357 357 359 361 360 359 357 355 357 363 359 356 355 354 354 353 352 353 354 352 355 353 348 346 344 344 343 339 338 337 337 338 337 336 332 330 330 331 331 329 331 338
331 333 335 336 337 339 340 339 340 341 343 343 343 345 346 346 346 346 346 347 348 347 349 348 348 349 347 347 346 345 347 347 347 347 347 348 349 350 350 350 351 353 356 358 357 358 359 362 361 358 358 362 363 357 354 355 356 355 356 356 356 352 349 350 355 356 349 350 346 341 339 338 336 335 334 338 336 333 330 330 333 338 333 332 335
331 333 334 335 336 339 340 339 340 341 342 343 343 345 346 346 346 345 345 346 346 348 349 348 348 350 348 348 347 347 348 348 347 346 347 348 348 349 349 349 350 352 353 356 357 358 358 359 362 359 360 357 358 356 354 356 356 356 355 353 353 353 352 356 349 351 353 346 346 345 342 343 340 339 339 338 337 335 333 331 332 333 335 336 340
330 332 333 334 336 337 338 339 340 341 341 343 343 345 346 346 345 344 345 345 345 348 348 348 348 349 349 348 348 348 348 348 347 347 347 348 348 348 348 349 349 350 351 354 356 357 357 356 355 356 356 358 358 356 355 356 354 355 356 358 355 354 352 354 350 347 350 347 346 346 344 345 343 343 346 343 338 337 335 331 333 338 334 335 337
330 332 333 333 336 338 339 340 340 341 342 343 344 344 345 346 345 345 345 346 345 348 348 348 348 349 349 348 347 350 347 348 347 347 348 347 348 348 349 350 350 351 352 353 356 357 358 358 358 357 356 356 358 357 356 357 355 355 358 354 355 353 354 354 352 356 352 351 351 347 347 346 346 346 344 342 340 338 335 334 335 336 340 340 339
330 331 332 334 336 338 339 340 341 342 343 344 344 344 345 345 345 345 345 345 345 347 348 348 348 349 349 349 347 349 348 348 347 349 349 348 348 348 349 351 350 351 353 354 357 357 357 357 357 356 356 357 358 357 361 358 358 358 359 353 354 354 355 357 355 355 355 353 351 347 348 348 347 345 345 344 343 339 340 339 339 337 335 332 337
331 331 332 334 337 339 340 340 341 342 343 344 345 345 345 345 345 345 345 346 346 348 348 348 348 349 348 348 349 349 353 349 350 352 350 349 350 350 350 351 351 351 354 355 356 356 355 356 357 358 356 359 359 358 357 357 357 356 354 357 354 365 356 355 353 355 356 353 352 351 349 349 350 347 345 345 344 345 347 347 341 336 333 331 331
331 332 332 334 336 339 340 340 341 343 343 344 345 346 346 346 345 345 346 347 346 348 348 348 348 348 348 348 349 349 350 348 347 348 351 351 351 352 352 353 353 353 353 357 355 355 355 355 355 357 357 359 359 359 359 357 356 357 356 353 354 354 358 354 353 354 354 357 351 352 352 351 352 349 346 346 346 348 347 348 347 342 336 334 329
332 333 333 335 336 338 340 341 342 343 344 344 346 348 347 347 347 345 346 346 346 348 348 348 347 348 348 348 348 349 350 350 348 348 351 351 352 353 354 355 354 356 356 357 356 354 354 361 355 356 357 359 360 360 359 358 356 356 356 354 355 354 353 354 356 356 356 353 356 352 353 350 351 351 348 347 347 348 349 350 350 347 342 338 333
332 332 333 335 336 337 339 340 342 343 345 345 347 349 348 348 348 347 347 348 347 348 349 350 349 349 349 349 348 350 351 351 350 350 351 351 352 353 354 355 356 356 357 356 356 354 354 354 355 355 357 358 359 359 358 357 356 356 357 356 355 354 353 352 352 357 358 357 353 351 349 348 349 351 349 349 350 349 350 350 349 348 345 343 339
332 332 334 335 336 337 339 340 341 342 344 346 347 349 348 349 349 348 348 349 348 348 350 349 349 350 350 350 350 350 352 352 351 350 350 351 352 353 354 354 355 357 356 356 356 355 354 353 354 356 356 358 358 359 359 357 355 356 356 357 357 354 354 353 355 356 360 357 353 352 351 349 350 350 351 350 349 352 354 350 349 348 345 346 344
332 331 332 334 337 337 339 340 341 343 345 346 347 348 349 349 349 349 347 349 348 348 349 350 350 350 351 349 350 350 351 353 352 352 351 351 352 354 354 354 354 354 355 355 355 355 354 354 354 355 356 356 357 357 357 357 355 355 355 354 354 353 354 354 355 355 355 355 354 352 352 352 351 351 351 352 351 351 352 348 347 345 344 344 346
334 333 332 333 336 336 338 339 339 341 344 345 347 348 348 348 349 349 348 349 349 349 349 350 350 350 350 350 351 351 352 353 353 352 352 352 352 353 354 354 354 354 355 354 354 355 355 354 354 353 354 356 357 357 357 357 356 355 355 357 356 353 352 353 351 352 353 355 354 351 352 352 352 353 354 353 351 351 352 349 346 346 343 342 345
335 337 337 337 340 342 341 340 339 338 342 345 346 347 348 349 349 350 349 349 351 351 351 351 350 350 350 351 352 352 352 352 352 352 352 352 352 353 354 354 353 354 355 354 353 354 354 353 354 353 353 355 356 357 357 356 356 355 355 355 357 355 353 353 353 352 353 353 353 353 354 354 355 352 353 354 354 350 351 350 348 347 345 343 345
337 338 339 339 339 342 341 339 340 339 340 342 345 348 348 349 350 350 349 350 352 352 352 352 351 350 351 351 351 352 352 352 351 352 352 352 352 352 354 353 353 354 353 354 354 353 353 353 353 354 353 354 355 356 356 356 356 356 355 355 355 355 355 355 354 354 353 354 354 352 353 354 352 350 350 349 350 350 348 348 347 345 344 344 343
335 336 337 339 339 339 338 337 337 338 340 340 341 346 348 349 350 351 351 352 352 354 353 353 352 351 351 351 351 351 351 352 352 352 352 352 352 352 352 353 353 353 353 353 353 353 352 352 353 353 352 351 352 353 353 354 354 355 356 356 355 355 356 355 355 355 360 355 354 354 354 352 350 349 349 348 348 348 349 346 345 343 344 344 346
335 334 335 336 338 339 337 337 337 339 340 341 342 343 345 348 349 351 351 351 352 353 354 353 353 352 351 350 350 351 351 351 352 352 352 351 352 352 351 352 353 352 352 352 352 352 352 351 351 348 347 349 349 350 349 349 350 350 351 354 356 356 356 356 356 356 356 356 356 355 354 353 351 349 349 349 347 346 345 344 343 343 342 341 341
333 334 334 335 337 339 339 339 339 339 341 341 342 344 344 343 344 346 346 346 346 348 351 352 353 352 351 350 350 350 351 351 352 352 352 351 350 350 350 349 351 352 352 351 351 351 352 351 348 349 348 348 349 350 349 348 349 349 349 350 352 354 356 356 356 356 357 356 356 355 354 354 352 351 350 350 349 346 346 343 344 343 341 340 341
334 334 334 333 335 338 338 339 340 340 341 342 344 344 344 344 344 346 347 347 347 346 345 346 348 349 349 349 347 344 342 343 344 346 349 351 351 350 349 349 349 349 350 350 350 350 351 350 349 349 349 348 348 349 348 348 349 349 349 348 349 351 353 355 356 356 356 356 355 355 355 354 353 352 351 350 348 347 345 343 342 341 343 342 341
333 333 333 334 336 337 338 339 340 341 341 341 343 344 345 346 346 347 348 347 345 345 344 344 344 344 342 343 343 343 343 345 346 345 343 345 348 349 348 347 347 349 350 350 351 351 351 350 349 349 348 348 348 349 349 348 347 348 348 348 348 349 351 353 355 355 355 354 354 355 354 354 356 362 364 362 358 356 348 344 343 342 343 342 340
333 334 334 334 336 337 337 339 340 341 341 342 342 343 345 345 346 347 347 347 345 344 344 343 343 342 342 343 343 344 343 344 344 344 345 346 348 350 353 349 344 346 348 349 349 350 350 350 349 348 348 349 349 349 353 355 354 349 347 347 348 348 350 351 352 353 353 352 352 352 355 363 365 366 368 371 371 367 363 353 346 342 343 342 339
331 332 334 335 335 336 337 337 339 340 341 342 343 344 345 347 347 347 347 348 346 345 345 343 343 343 343 343 344 344 344 343 344 345 346 347 348 349 349 348 347 346 346 348 349 347 348 349 349 349 348 349 350 351 353 342 344 352 353 347 346 347 348 349 350 350 350 350 349 349 349 356 363 368 362 366 365 368 367 365 363 359 352 344 340
330 333 334 334 334 334 335 337 339 340 341 341 342 344 345 346 348 348 348 349 347 345 344 344 345 344 343 344 344 345 344 343 345 345 346 347 348 348 347 346 346 346 346 347 347 347 347 348 349 349 348 349 349 353 340 339 341 342 353 352 349 349 350 349 349 349 349 349 348 348 349 350 353 353 352 352 360 369 366 366 365 364 363 360 355
331 333 332 333 334 334 335 337 338 339 340 341 342 342 342 344 345 346 347 346 345 344 343 342 343 345 345 344 344 344 344 343 344 345 346 347 348 348 347 348 347 348 345 343 343 345 345 346 347 347 348 348 348 344 337 337 335 334 336 346 344 346 349 349 348 347 347 347 347 347 348 352 353 368 362 347 347 354 366 362 364 366 367 363 349
332 332 332 334 335 335 335 336 336 337 338 340 342 341 341 343 344 343 342 342 342 343 342 343 344 345 345 345 344 344 344 343 344 345 345 346 348 349 350 349 349 346 344 344 346 344 343 343 345 345 344 346 343 332 328 329 330 330 332 337 340 343 347 349 348 347 347 347 345 344 346 347 343 344 342 344 346 348 350 352 350 345 346 357 362
332 332 333 334 335 335 335 336 336 338 338 339 339 341 340 340 341 340 341 339 339 339 340 340 340 341 342 343 343 343 343 343 344 344 343 342 342 344 347 348 348 347 345 344 343 343 343 345 345 346 345 341 329 320 322 324 323 324 328 340 342 345 346 347 346 346 345 344 344 346 348 346 342 338 340 344 346 348 348 350 346 347 346 348 349
326 329 332 333 333 333 334 334 335 336 337 338 337 339 338 337 339 338 338 337 337 337 337 338 337 338 339 340 340 340 341 342 341 341 340 340 341 341 342 345 346 346 346 345 345 346 346 346 348 344 340 331 325 318 318 319 319 321 329 345 346 344 344 343 344 344 345 345 346 348 346 342 339 337 342 339 350 351 349 349 348 347 345 346 345
324 326 328 330 332 332 332 332 331 331 330 330 332 334 334 334 335 336 336 335 335 335 335 336 337 337 338 338 338 338 339 340 340 340 339 338 338 339 340 344 344 343 343 344 344 345 346 347 345 340 336 332 327 321 315 315 316 318 328 344 345 345 343 343 343 347 350 350 349 348 344 340 337 336 333 325 335 357 346 345 342 341 341 342 341
323 324 324 324 324 326 328 328 328 328 329 330 331 331 331 330 331 331 332 333 333 333 334 335 335 336 336 337 337 337 337 338 337 336 337 338 340 342 341 345 344 342 341 343 342 342 342 344 343 336 335 331 328 323 313 313 314 316 327 338 345 346 343 342 345 348 349 351 352 358 350 340 337 334 323 325 333 347 340 339 341 338 339 339 339
321 321 322 323 324 325 325 326 326 325 326 328 328 328 327 326 327 327 328 328 331 333 333 334 335 336 336 336 337 337 336 336 336 336 337 337 339 342 343 343 341 340 341 342 344 341 340 339 339 338 339 329 328 326 315 311 313 314 327 336 343 348 347 346 347 348 349 349 349 354 351 342 335 330 319 322 329 342 337 336 336 336 337 337 334
319 320 321 322 324 324 323 323 323 324 325 325 325 325 326 324 325 326 324 324 325 326 329 333 335 337 336 338 339 339 337 335 334 334 335 335 339 340 341 341 340 340 341 341 343 340 336 334 333 331 329 329 326 326 321 311 311 313 320 336 339 344 344 345 347 347 345 340 336 333 334 325 321 319 317 316 319 326 330 330 334 334 334 333 332
317 319 323 318 318 318 318 320 321 324 326 326 324 323 323 324 323 323 323 324 326 327 326 327 327 327 329 332 336 337 335 334 335 334 338 338 336 336 341 341 340 340 340 339 338 335 332 330 331 331 331 331 330 326 324 312 311 311 314 323 328 330 330 334 341 346 342 338 335 335 335 326 317 316 314 313 314 320 331 332 331 331 334 337 333
320 322 318 314 315 315 315 316 317 319 321 322 323 322 321 321 320 321 324 327 327 326 326 325 325 325 326 327 330 333 336 338 340 339 338 338 340 342 341 340 338 335 333 331 331 331 328 327 328 329 329 329 332 331 328 319 313 310 310 315 325 329 331 336 337 340 340 339 339 339 337 328 317 318 314 310 308 312 319 332 332 322 316 322 332
312 313 318 315 313 312 312 312 314 316 318 320 321 320 320 320 320 321 323 324 326 326 326 324 324 324 326 326 327 330 332 334 333 331 329 327 328 329 333 338 335 332 330 329 328 327 325 324 325 326 326 327 326 329 327 328 317 310 310 313 316 326 325 334 329 328 329 331 331 331 332 326 313 309 307 307 308 310 319 324 317 316 317 321 331
314 315 315 316 310 310 309 309 310 312 313 315 320 321 322 320 318 322 324 327 325 324 321 323 326 323 323 325 326 327 326 327 327 325 324 322 322 323 324 326 334 333 329 327 325 325 323 322 321 323 324 325 324 322 324 326 324 315 311 311 314 315 320 326 327 327 327 327 325 325 324 311 309 306 307 310 310 314 323 314 311 314 318 325 332
313 313 314 311 309 308 308 308 308 309 309 310 312 317 319 317 316 323 324 323 325 325 321 320 320 320 321 320 321 321 322 321 320 321 322 321 321 321 320 322 328 332 331 327 324 324 323 323 323 322 322 319 318 318 317 321 323 323 315 313 314 318 318 319 324 325 328 325 320 311 309 310 312 312 314 314 316 315 310 311 310 314 327 330 331
312 311 312 309 308 307 307 308 308 311 310 312 309 309 311 311 315 319 321 323 325 325 323 320 320 320 318 319 318 318 318 318 317 316 318 318 318 321 321 321 323 326 330 329 326 325 325 324 323 321 319 318 318 316 315 315 319 319 318 316 315 318 325 325 325 321 320 318 315 314 313 313 316 320 327 329 329 330 324 318 314 322 332 332 333
311 314 313 309 308 307 308 309 308 309 310 311 310 311 311 312 316 316 320 322 324 324 325 322 321 321 320 319 317 316 316 317 316 315 314 315 315 313 316 320 319 321 326 330 331 329 329 327 321 319 319 318 316 315 313 313 312 311 310 312 313 315 318 319 318 316 316 316 321 327 325 320 318 320 322 324 325 329 332 329 327 331 330 331 335
310 311 311 308 307 307 308 309 309 308 309 310 311 311 312 313 316 318 319 321 324 323 318 318 322 324 324 323 324 326 319 315 315 314 313 312 313 313 312 313 313 314 318 320 323 323 322 320 317 317 315 315 314 314 312 309 309 308 307 308 310 310 308 311 312 311 310 314 319 324 323 328 328 327 326 326 326 329 332 331 329 331 333 334 334
309 311 311 307 310 310 310 312 309 308 307 308 309 310 310 312 314 316 317 320 322 323 320 316 317 320 321 321 318 317 315 314 313 312 311 310 311 312 313 313 313 310 311 315 319 318 319 318 318 317 315 313 313 313 313 304 306 302 303 304 306 304 303 306 310 306 310 315 317 319 321 322 321 323 324 325 326 328 328 329 331 328 327 326 325
310 311 308 311 313 310 310 311 309 306 307 310 309 309 309 312 312 313 316 319 319 318 315 316 317 317 320 321 321 317 316 315 313 311 311 310 308 303 307 312 311 311 303 297 302 314 314 313 310 311 314 314 312 313 304 297 295 294 295 296 297 295 295 299 302 302 309 314 315 316 318 319 320 320 323 325 325 323 322 322 323 325 324 322 321
311 310 309 309 309 314 312 312 310 310 310 310 310 308 309 311 313 312 313 313 316 317 316 315 319 317 320 320 319 318 317 313 313 312 313 314 310 309 296 299 306 305 299 294 293 295 302 310 316 309 309 304 303 299 296 294 294 294 293 292 292 292 292 293 295 303 313 314 315 317 318 318 319 320 321 320 321 321 321 320 320 321 322 321 321
Wind_Speed
8 11 12 12 13 12 10 9 9 9 9 10 10 8 9 9 8 8 7 6 6 5 5 5 5 3 2 4 4 4 4 3 3 3 3 4 3 3 3 3 3 3 2 2 3 3 3 3 2 2 2 2 2 3 2 2 1 1 2 2 2 2 1 1 0 2 2 2 3 4 3 2 1 2 3 3 4 4 3 4 4 4 5 5 6
7 8 9 10 10 11 10 9 9 10 8 10 10 9 8 8 8 8 6 6 6 6 5 5 4 4 4 5 4 4 4 4 4 3 4 4 3 3 3 2 2 2 1 2 2 3 3 2 2 3 2 3 2 2 2 2 2 2 1 3 0 1 2 3 4 1 3 1 2 1 4 4 1 1 2 3 4 4 5 4 4 5 6 5 4
8 11 10 11 12 13 11 10 11 12 12 11 9 8 8 8 7 6 6 7 6 7 6 5 4 4 5 4 5 3 3 5 5 5 4 4 4 3 3 2 3 2 2 2 3 3 4 3 4 3 3 2 1 2 1 3 2 2 1 0 3 1 1 2 3 0 2 1 2 2 1 1 2 2 1 3 4 5 5 5 5 5 7 5 4
11 11 11 11 12 12 10 10 11 10 10 9 8 9 8 7 7 7 6 6 7 7 7 5 6 5 5 6 6 6 5 4 3 2 3 2 3 3 3 3 3 3 2 3 3 3 4 4 3 3 4 2 3 2 1 3 2 2 1 0 1 2 2 2 3 2 2 5 1 0 0 1 2 1 2 5 1 2 3 4 3 5 5 4 3
12 11 11 11 11 12 12 11 11 11 11 11 10 9 7 9 8 8 7 7 7 7 7 6 5 4 3 3 4 3 2 3 3 3 4 4 3 3 5 3 3 3 3 3 2 3 3 3 3 3 3 2 2 2 2 2 2 2 1 1 0 1 2 1 2 3 4 1 5 2 1 1 2 3 2 4 4 2 1 3 4 4 5 4 4
14 14 14 13 13 11 9 10 11 11 11 11 11 10 9 8 8 7 7 6 7 7 7 6 6 7 5 6 6 5 5 5 7 7 5 5 6 4 3 4 4 3 3 3 3 2 3 3 3 2 2 2 2 3 2 2 2 2 1 1 0 0 1 2 1 1 3 3 2 1 3 1 1 1 1 1 5 0 3 3 3 3 3 4 4
12 13 13 12 12 11 10 11 11 12 11 10 10 10 9 9 9 9 8 6 6 6 6 5 5 6 7 7 6 6 7 5 5 6 7 6 4 4 5 4 4 4 3 3 3 3 3 2 2 2 2 2 2 2 2 3 2 2 0 0 1 1 1 1 1 2 2 2 3 2 2 1 2 2 1 0 1 3 3 3 4 4 3 2 3
12 13 13 14 13 14 13 12 11 12 10 10 10 9 10 10 9 9 7 7 6 5 6 5 6 5 6 6 6 6 7 7 5 5 5 5 5 5 4 5 4 4 4 3 3 3 3 3 2 2 2 2 2 3 3 2 1 1 0 1 0 1 2 2 1 2 2 1 2 3 3 2 2 3 3 1 2 0 3 5 2 3 4 2 0
14 13 14 13 13 13 13 12 11 11 10 11 11 10 10 9 9 8 8 7 7 6 6 5 5 6 6 6 5 5 6 6 5 4 6 5 5 4 4 4 4 3 3 4 4 4 3 3 3 3 2 3 2 3 2 1 1 1 1 1 1 0 0 1 1 0 1 1 1 1 2 2 2 2 1 2 1 1 2 2 4 5 3 1 4
12 16 16 15 14 13 13 13 11 11 11 11 10 9 9 8 9 9 8 7 7 6 6 5 5 5 6 6 7 6 4 3 4 5 5 4 5 4 4 4 4 3 3 3 3 4 4 3 3 3 3 3 2 3 2 1 1 1 2 1 1 0 2 0 0 1 1 1 0 1 1 0 1 1 2 2 2 1 0 1 2 1 2 3 3
11 12 14 14 14 13 12 13 12 11 9 10 9 10 9 10 10 10 9 7 6 7 6 6 5 5 6 7 7 7 6 5 5 4 4 3 5 5 4 5 3 4 4 3 4 3 3 3 3 4 3 2 2 2 3 2 2 2 2 1 1 0 0 2 1 1 0 0 0 1 1 1 1 0 1 0 1 0 1 1 2 2 2 3 3
12 12 13 13 11 10 11 12 12 11 10 10 9 9 10 10 9 10 8 7 7 6 6 6 6 6 5 7 8 7 7 6 7 7 6 6 6 6 5 3 3 3 2 3 4 3 3 3 3 3 3 3 3 3 3 2 2 2 2 2 1 1 0 0 1 0 0 0 1 1 0 1 1 0 2 3 2 1 1 1 2 3 1 3 6
13 13 13 12 13 13 12 12 11 11 11 12 11 10 10 10 11 11 10 8 7 6 7 6 6 6 6 6 7 6 7 7 7 6 6 6 6 5 4 5 3 3 3 4 4 4 3 3 3 4 3 3 3 3 3 2 2 3 3 2 2 1 1 1 0 1 1 1 2 1 1 1 1 1 1 3 2 3 3 0 0 0 1 3 3
13 13 14 14 13 13 14 13 12 11 12 12 11 11 10 9 10 11 11 9 7 6 7 7 7 6 6 6 6 6 6 6 6 6 6 6 6 6 6 6 6 6 5 5 5 4 4 4 3 3 3 3 3 3 3 2 2 3 3 3 3 2 1 1 1 1 2 2 1 0 2 2 2 1 2 3 3 2 0 0 1 1 0 2 3
11 13 14 14 15 14 13 13 12 12 12 12 11 10 10 10 10 11 10 9 8 8 6 7 7 6 5 5 5 4 6 6 5 5 6 6 5 6 5 5 6 5 6 5 4 4 4 4 4 3 3 3 3 3 3 2 2 1 2 2 1 2 1 1 1 1 1 1 2 2 2 2 4 3 4 3 3 2 1 2 1 2 4 3 3
11 13 14 15 15 15 13 13 12 12 13 12 12 10 11 10 11 11 12 10 10 9 8 8 7 6 5 5 5 4 3 4 4 4 4 5 6 6 6 5 6 5 4 3 4 4 4 4 4 4 3 3 3 3 3 3 2 2 2 1 2 0 1 1 2 1 2 2 3 2 2 4 4 4 4 4 4 3 2 3 2 2 0 3 4
11 12 13 14 14 14 14 14 12 13 12 13 12 12 13 11 11 11 11 9 10 10 10 8 7 6 6 6 5 4 5 5 6 5 6 5 5 5 5 6 4 4 5 4 4 4 4 5 4 4 4 4 3 3 3 3 2 1 2 2 3 2 1 3 2 2 3 2 3 3 5 4 4 2 3 4 4 3 4 4 4 4 4 1 1
11 11 12 14 15 15 13 13 14 14 14 14 13 12 12 12 13 13 11 12 11 10 10 9 9 8 7 7 6 6 5 5 5 6 5 4 4 4 3 4 5 5 5 4 4 4 4 5 4 4 4 3 4 4 3 3 2 2 2 3 3 1 2 2 2 2 3 2 2 3 3 4 3 2 4 4 4 5 4 5 4 4 5 3 3
10 10 10 11 12 14 14 14 14 14 14 14 14 13 11 11 12 13 14 14 13 11 10 9 9 8 7 8 7 6 5 5 5 5 4 5 6 5 5 6 4 4 4 4 4 4 4 4 4 4 4 4 4 4 3 3 3 3 3 4 3 2 2 3 3 2 3 2 3 3 3 4 4 3 2 3 3 3 4 4 4 3 5 3 4
9 9 9 10 12 13 14 14 14 14 13 12 13 11 12 12 11 11 11 10 10 11 10 10 10 9 8 6 6 6 6 5 5 5 6 6 6 6 5 5 6 4 5 5 5 4 4 4 4 5 5 4 4 4 3 3 3 4 4 4 4 3 3 4 4 3 3 2 2 3 3 4 4 3 4 3 4 3 3 4 4 4 4 3 4
5 4 4 2 0 3 7 12 14 12 12 12 12 13 13 11 11 12 12 11 11 11 11 10 9 9 9 9 8 7 7 6 5 6 6 6 6 6 6 6 4 5 4 5 5 5 5 5 5 5 5 5 5 5 4 4 4 4 4 4 3 3 3 4 3 5 3 3 3 3 4 4 2 3 4 4 3 2 2 2 3 3 4 3 5
10 10 9 6 5 6 8 9 6 6 11 12 12 11 11 11 12 12 11 11 12 11 11 10 9 9 10 9 8 7 6 5 6 6 6 6 6 6 5 4 5 6 5 6 6 5 5 5 5 5 5 5 5 5 5 5 5 5 5 4 4 4 4 4 3 4 4 4 3 3 4 5 2 3 3 3 3 2 3 3 3 4 5 4 4
8 9 8 8 6 5 4 4 1 6 6 12 11 12 12 12 12 11 12 12 12 12 11 9 9 9 9 8 7 7 6 6 7 6 6 6 6 6 5 5 6 6 5 6 6 6 6 5 5 5 5 5 6 6 5 5 6 6 6 5 5 4 5 5 4 5 5 4 3 3 5 4 3 3 3 4 3 4 4 5 5 5 5 5 5
6 6 9 9 9 7 7 4 4 3 3 6 6 11 11 11 12 11 13 13 11 10 9 8 8 8 8 8 7 6 7 7 7 6 6 6 6 5 5 6 6 6 6 6 6 6 5 5 6 5 5 5 6 6 5 6 6 6 6 6 6 5 5 5 6 6 5 5 5 4 5 4 3 3 4 3 4 4 5 5 4 3 3 4 3
4 5 5 6 5 6 6 7 8 7 6 5 7 8 8 11 11 11 11 11 10 8 8 8 8 8 8 8 7 7 7 7 7 6 7 6 6 5 5 6 7 7 7 6 6 5 5 5 6 5 3 2 0 0 0 0 0 0 2 4 5 5 6 6 6 6 6 5 5 5 5 4 3 4 5 4 4 4 4 3 4 3 4 4 4
7 6 8 9 8 5 3 4 6 9 8 8 7 2 4 4 3 4 5 5 4 3 5 6 7 8 7 8 7 6 7 7 7 7 7 7 6 6 6 6 7 8 7 7 7 6 6 6 4 5 5 5 5 5 6 6 6 5 3 2 3 5 6 6 6 6 6 5 5 5 5 5 4 4 6 5 4 5 4 4 5 5 4 3 3
8 5 5 5 5 5 4 3 5 9 9 7 7 6 6 5 3 4 6 7 6 6 5 6 6 6 6 6 6 5 5 6 7 8 7 6 6 7 7 7 7 8 8 8 7 7 6 5 7 7 6 6 5 5 5 4 5 5 6 5 5 5 6 6 6 7 7 6 6 6 6 5 5 6 6 6 6 4 4 5 5 5 4 3 3
7 7 6 6 5 3 5 5 6 7 9 9 7 7 8 9 8 6 7 8 7 9 7 6 6 5 4 3 4 7 7 6 6 7 6 5 6 7 7 7 6 7 8 8 8 8 5 7 8 8 7 6 6 5 5 5 5 6 5 5 6 5 5 6 7 7 7 6 6 6 6 6 6 6 7 7 5 7 5 6 6 4 4 3 4
6 8 8 7 7 6 9 9 8 10 10 10 9 7 7 7 8 7 7 7 7 7 7 7 7 7 7 6 6 6 5 4 3 1 1 3 6 6 5 6 5 6 7 8 6 5 6 7 7 7 6 6 6 6 5 6 6 5 4 6 7 6 6 6 6 7 7 7 6 6 6 7 7 11 13 11 9 8 6 7 6 5 4 4 3
3 4 3 1 2 3 2 2 8 11 12 12 11 10 8 9 9 7 7 8 9 8 7 6 6 5 5 5 6 7 7 7 8 7 6 4 2 2 4 6 6 6 6 6 6 7 8 9 8 8 7 7 7 6 8 13 10 6 6 6 6 6 6 5 6 6 8 7 7 6 6 12 13 14 14 11 10 12 12 8 8 5 5 4 4
6 5 6 6 4 4 3 1 2 4 8 11 13 11 8 6 6 6 6 6 7 8 8 7 7 7 7 6 6 7 8 8 7 7 7 7 6 2 1 3 5 6 7 6 7 8 8 8 9 8 8 7 7 7 13 14 14 13 7 6 6 6 5 6 6 6 7 8 7 6 5 8 8 8 5 7 9 10 11 11 11 7 7 6 4
1 4 6 6 5 4 6 9 10 8 3 0 1 4 9 9 6 4 3 2 2 3 4 4 3 4 7 7 6 6 6 6 6 6 5 5 4 4 4 2 1 3 3 3 7 9 8 7 7 7 7 7 7 8 12 13 12 12 10 6 5 6 6 6 6 6 6 6 7 6 4 4 5 5 4 3 4 5 7 8 10 10 9 10 9
3 3 4 4 4 4 3 3 2 3 8 11 10 6 1 2 7 8 7 4 3 3 4 4 2 3 4 5 6 6 6 6 7 6 5 4 4 4 3 2 1 0 1 2 4 4 2 2 2 6 7 5 5 5 10 10 8 6 5 5 5 6 6 7 7 7 6 6 6 6 4 3 3 5 3 2 2 1 1 1 3 4 5 7 8
4 5 5 4 2 4 5 5 5 5 5 4 7 10 10 7 6 6 8 7 6 5 3 4 2 3 5 5 4 4 5 5 5 5 5 4 4 4 3 1 1 3 3 5 5 4 2 1 1 3 3 4 1 6 6 5 4 3 4 6 5 6 7 7 5 3 2 1 4 6 5 5 4 3 3 3 2 3 3 2 2 1 1 1 2
6 5 5 5 6 6 6 6 6 3 3 4 3 4 8 9 10 9 7 9 7 8 7 4 3 2 1 2 3 3 5 6 5 3 4 3 2 2 3 3 3 3 3 4 7 8 8 7 3 4 3 2 6 9 6 5 5 6 7 7 5 5 5 3 3 5 6 7 7 6 6 7 5 4 4 3 3 3 3 2 2 1 2 2 3
8 9 9 8 9 9 9 9 9 9 7 6 5 3 5 6 6 9 9 8 8 7 7 7 4 1 2 2 2 2 3 4 2 1 1 2 2 4 5 3 1 2 2 2 0 2 3 5 5 5 4 5 0 4 2 2 5 7 10 6 5 5 3 3 4 7 7 6 6 4 2 4 5 5 3 3 3 3 3 3 3 1 2 3 4
9 9 9 10 10 10 10 10 10 10 10 9 8 7 6 8 8 7 8 8 9 8 7 6 5 5 5 4 2 0 2 2 1 4 5 3 1 2 1 3 2 1 2 3 3 2 2 3 4 4 4 3 1 3 4 5 5 7 5 5 3 3 6 9 7 3 2 5 7 6 4 3 5 4 0 1 2 3 3 3 2 2 1 2 3
7 9 9 10 9 10 10 10 9 10 8 6 6 6 8 7 11 8 7 7 8 8 7 7 5 2 1 1 1 0 1 3 3 3 5 3 2 3 4 5 5 2 3 3 3 3 5 5 4 3 3 4 1 5 7 8 9 8 6 5 4 3 5 7 6 6 6 6 8 14 9 6 4 3 2 4 4 1 2 2 2 2 1 1 0
7 7 9 9 9 9 9 10 9 9 6 6 6 7 8 8 8 9 8 8 8 6 5 6 5 4 2 0 0 0 1 0 0 2 1 1 1 3 4 3 1 2 3 3 2 3 5 3 4 2 2 5 3 3 8 9 9 9 5 2 3 4 5 7 6 7 6 5 2 7 8 3 2 1 4 7 7 4 3 2 2 2 3 1 0
6 7 7 7 8 10 11 10 9 7 6 5 6 7 8 8 7 7 9 9 7 5 4 3 2 2 2 0 1 0 1 0 0 2 3 2 0 1 3 4 3 1 2 3 3 6 6 4 5 4 4 3 3 3 5 8 10 11 10 3 3 3 4 4 5 5 5 5 5 5 6 7 7 4 4 5 6 5 4 3 2 1 1 1 1
5 6 6 8 8 8 8 7 6 6 6 6 5 7 7 6 6 7 8 7 4 3 3 3 4 4 3 2 2 1 1 2 3 1 2 2 2 1 0 1 1 1 0 1 4 5 6 6 5 5 3 3 2 2 4 8 10 11 11 9 5 6 7 6 5 1 3 5 5 3 3 4 5 5 4 4 3 3 3 2 3 3 2 3 3
4 6 6 7 7 8 8 8 7 7 6 5 5 7 6 5 6 7 4 2 2 3 3 5 6 6 5 4 4 4 3 3 3 4 5 5 4 4 3 3 5 5 6 6 6 6 6 5 4 3 4 3 4 6 2 6 10 10 10 9 6 6 6 5 4 1 3 5 5 4 4 4 5 5 5 5 5 3 2 1 3 4 4 4 1
4 6 5 7 7 7 7 6 6 7 7 6 5 6 6 7 9 8 7 5 5 5 4 4 4 4 4 4 5 5 4 4 5 5 6 6 6 7 6 5 5 5 6 5 4 4 5 6 5 4 4 4 3 5 9 7 10 11 11 12 11 7 9 7 5 5 5 5 4 3 3 5 4 3 4 4 4 4 4 2 3 5 4 3 1
3 3 4 5 7 6 7 7 7 7 7 7 6 6 6 7 7 6 5 4 4 4 4 5 4 5 5 5 5 5 4 4 4 5 6 7 6 5 5 4 4 3 4 4 4 3 4 5 5 4 3 4 4 4 7 10 8 10 12 12 11 11 10 6 6 5 4 3 3 3 2 1 1 3 5 4 5 6 4 5 7 5 4 4 3
4 4 4 5 6 6 6 6 6 6 6 5 5 5 5 6 5 5 5 4 3 4 5 5 5 4 4 4 6 6 6 6 6 6 6 5 5 4 5 4 4 4 4 4 3 3 3 3 3 3 3 3 4 4 4 7 10 9 10 11 10 10 9 6 3 2 3 2 4 7 6 3 3 2 1 5 4 6 10 7 7 6 6 3 3
4 4 4 4 4 5 6 6 5 4 4 4 4 5 6 3 4 4 4 3 4 5 5 4 4 4 4 4 7 7 7 7 7 6 6 5 5 4 4 4 4 4 3 3 3 3 3 3 3 3 3 3 3 4 4 5 6 8 8 11 9 9 10 9 6 3 6 8 9 11 10 8 7 4 1 1 2 3 6 6 8 8 4 4 3
4 3 3 4 4 5 5 5 5 4 3 3 4 3 2 3 5 5 5 4 4 4 4 4 4 4 4 4 6 5 5 6 6 6 6 6 5 5 5 4 5 4 3 3 3 3 2 2 3 3 3 3 4 4 5 5 6 6 5 5 6 5 8 6 5 5 7 6 7 7 7 9 9 9 6 4 6 9 4 5 5 5 4 3 4
1 1 4 4 4 4 4 4 3 2 2 3 4 4 4 4 5 5 5 5 5 4 5 4 4 3 4 4 4 7 6 5 5 5 5 6 6 5 6 6 5 5 4 4 4 4 3 3 2 2 2 3 4 4 4 5 5 5 4 5 4 5 6 5 5 6 6 6 6 8 8 5 3 3 3 3 5 4 4 4 5 4 5 5 7
3 1 1 3 2 3 2 2 1 1 3 4 4 4 4 4 4 4 4 5 4 4 4 5 4 4 4 4 5 4 4 4 4 5 6 5 3 4 5 4 4 3 4 3 4 4 3 3 3 3 3 3 3 4 3 2 2 3 3 4 4 4 5 5 6 10 7 5 5 5 6 6 5 4 1 2 2 2 3 4 5 5 5 6 5
1 2 2 2 1 1 1 1 1 1 2 3 3 4 4 4 4 4 4 4 3 3 4 4 4 4 3 4 4 4 4 4 4 4 4 6 8 8 5 4 3 7 9 7 5 2 2 3 5 2 2 3 2 3 3 2 2 3 3 5 4 4 5 7 10 13 6 4 4 5 5 5 6 6 6 5 5 5 6 6 6 6 6 5 4
0 1 0 1 0 0 0 0 2 3 2 1 1 3 4 4 4 3 3 3 4 3 3 3 3 3 3 2 3 4 3 4 4 3 3 4 4 5 8 9 8 7 5 6 8 9 10 8 4 3 2 4 4 4 6 7 6 6 3 2 5 5 4 6 8 6 3 5 5 6 6 6 6 6 7 6 6 6 6 6 6 6 5 5 5
Wind_Direction
175 172 168 165 164 165 163 163 164 161 163 165 169 172 172 172 162 171 176 169 166 168 168 161 162 155 133 179 206 203 207 218 239 222 214 227 200 185 173 184 200 196 178 175 168 167 174 187 201 228 209 186 214 235 243 271 257 221 276 302 306 341 310 259 346 87 68 10 23 26 357 357 175 159 207 233 236 237 246 246 258 259 245 240 242
158 163 166 159 159 161 160 163 164 163 174 169 174 175 173 171 170 171 166 168 173 175 173 168 173 172 161 185 184 182 197 201 224 227 213 210 208 199 187 182 183 192 176 196 167 154 160 185 217 219 218 231 227 258 265 279 313 299 265 338 257 292 308 329 337 40 27 122 118 357 347 331 333 114 188 231 230 225 219 221 233 241 251 247 248
168 168 166 165 162 162 164 168 174 173 171 175 177 172 173 173 172 168 171 171 177 178 163 177 181 176 176 174 179 186 212 209 202 204 192 195 197 202 189 178 185 200 200 191 173 173 174 183 214 222 226 227 242 279 329 314 278 276 249 307 323 331 314 293 331 288 139 140 95 82 331 355 325 5 320 259 229 231 213 213 217 223 239 243 242
171 170 170 167 165 166 166 169 172 170 169 173 175 177 177 176 170 167 174 176 181 181 175 181 175 178 186 173 180 177 189 200 210 201 193 173 206 203 203 185 194 198 200 207 197 182 177 197 206 201 224 219 188 235 264 281 309 328 357 181 125 3 353 320 3 11 128 120 65 47 224 107 1 318 323 291 267 254 231 243 224 233 234 235 206
168 172 172 168 169 172 171 171 168 170 173 174 177 179 182 179 175 171 169 178 183 183 176 173 159 144 145 132 122 94 77 130 145 192 200 198 189 198 210 194 194 201 199 218 202 203 193 199 199 213 218 225 202 206 231 255 281 275 271 198 181 149 354 325 324 25 50 95 135 91 16 15 225 249 354 292 353 344 339 299 248 237 242 238 221
168 174 176 175 175 172 166 165 171 174 175 175 176 180 176 177 174 171 169 170 174 180 170 165 159 152 146 149 159 165 161 156 178 187 195 198 202 204 201 192 191 200 203 211 217 211 216 211 206 203 235 243 223 235 234 281 306 310 254 185 94 228 142 53 342 10 56 73 126 155 166 176 211 256 80 294 323 266 302 317 316 277 260 247 241
176 174 173 173 175 170 169 172 175 175 178 170 172 176 174 174 177 175 174 177 175 174 165 165 151 159 167 168 172 173 168 197 185 186 183 197 192 194 204 201 196 192 209 206 210 217 220 231 220 216 222 216 242 224 261 256 258 245 157 127 233 118 92 66 25 306 350 23 45 65 99 128 154 113 250 335 1 319 349 317 325 347 326 257 266
174 176 178 178 176 174 174 178 177 178 169 166 172 171 172 176 176 181 178 178 185 172 165 169 161 171 174 173 177 176 177 186 183 188 186 178 182 199 197 208 204 202 199 207 206 210 209 230 232 226 204 225 237 239 249 264 273 322 177 198 113 145 136 126 32 354 117 305 22 54 49 61 67 87 133 149 158 150 318 319 278 347 357 16 8
176 176 179 180 181 181 176 177 180 171 166 170 172 172 172 174 176 179 183 181 188 181 170 175 169 174 180 174 182 195 184 186 179 176 175 185 185 198 199 207 209 215 212 204 210 205 208 211 214 237 236 241 249 261 271 247 232 178 124 135 192 144 166 180 107 216 112 92 39 30 50 50 23 40 81 94 122 125 284 267 300 323 359 331 335
188 179 179 182 182 181 181 176 171 174 174 171 168 164 168 169 175 177 187 188 187 187 175 179 180 170 177 181 185 194 190 170 159 176 181 181 191 198 206 211 218 216 227 223 213 209 206 201 206 217 232 248 264 269 290 275 242 211 197 196 194 73 1 38 153 216 221 191 150 143 89 31 26 2 23 55 44 62 176 269 268 330 356 290 318
189 185 182 181 181 179 173 175 178 171 170 169 166 168 167 171 174 179 189 189 190 190 179 188 184 181 184 182 188 190 184 169 166 184 176 175 195 205 201 215 212 218 211 217 213 212 200 202 204 217 221 238 262 263 243 232 235 198 171 182 169 100 30 12 54 85 121 359 168 153 160 165 178 168 220 202 146 201 26 305 306 232 232 301 287
185 183 184 180 177 179 177 178 175 173 168 172 171 168 171 173 173 179 187 190 191 191 186 192 187 192 191 181 186 192 179 177 181 183 184 186 193 201 206 202 216 217 214 211 216 216 209 209 219 228 235 235 247 237 243 240 242 181 163 180 170 160 203 119 103 85 118 33 283 190 170 154 145 162 195 157 136 179 155 258 276 303 327 235 279
181 184 180 178 178 178 182 182 176 172 176 177 173 172 174 175 176 178 190 189 191 188 193 196 193 195 191 189 190 184 184 184 186 186 183 184 188 195 187 202 208 210 221 211 219 210 210 217 227 235 250 241 242 241 248 233 229 192 179 179 176 185 199 204 169 214 197 223 266 185 173 162 208 233 152 147 114 133 125 52 266 197 262 303 292
183 183 181 180 181 182 181 180 180 180 181 180 175 173 174 178 180 184 189 187 184 187 193 197 202 199 192 190 189 180 186 187 189 187 188 189 185 193 193 195 197 206 203 212 211 205 207 216 211 225 238 251 239 231 234 214 207 202 183 182 196 190 158 160 180 224 234 247 220 259 270 228 243 163 163 139 153 117 52 141 294 318 240 296 293
183 182 182 181 182 181 181 182 182 182 183 182 179 177 174 178 182 186 186 187 184 187 189 198 202 201 197 194 187 184 187 189 193 192 185 189 197 195 202 195 195 208 205 215 211 206 212 212 211 214 234 241 237 229 230 211 222 232 212 207 208 181 183 166 222 220 264 231 202 217 237 242 249 212 172 184 172 177 166 177 117 357 343 6 339
183 183 182 182 182 181 181 183 183 184 184 183 182 178 179 182 183 187 187 186 187 186 192 197 201 197 197 197 197 190 194 194 198 198 198 195 194 196 202 202 205 202 211 210 221 210 216 217 216 216 213 219 221 220 213 211 223 228 266 256 266 243 210 243 254 210 239 234 233 207 186 238 230 214 197 188 195 181 167 153 124 114 107 322 336
183 181 183 183 183 182 183 183 184 185 184 185 184 182 183 181 182 187 189 187 189 191 190 194 195 196 204 203 197 195 198 197 204 205 201 201 198 199 197 207 205 201 210 207 216 212 216 215 219 225 212 207 207 215 213 212 213 246 259 265 265 289 287 256 251 239 251 238 235 212 213 237 242 194 194 193 189 187 192 185 173 162 164 136 303
184 182 182 181 181 182 184 187 185 185 185 187 186 185 186 182 182 185 187 189 194 191 190 190 192 199 205 206 205 202 202 203 207 209 203 194 209 209 203 197 208 207 206 213 207 211 213 218 214 223 218 205 209 206 207 212 198 226 244 253 254 302 290 301 273 255 266 251 253 258 250 257 260 189 210 208 186 192 185 197 202 186 162 170 180
185 180 177 181 182 184 184 187 189 186 187 187 186 185 185 187 187 186 189 191 190 191 191 192 190 197 202 207 207 207 205 205 206 206 196 199 206 204 206 211 210 209 206 217 215 213 210 216 213 221 216 215 209 210 203 210 203 221 232 240 254 237 251 267 266 250 267 255 282 282 283 269 279 276 248 220 213 187 205 196 205 168 192 174 168
181 178 178 183 188 186 185 186 187 186 187 188 186 183 186 188 186 191 194 192 188 190 189 192 194 195 198 199 209 208 205 203 201 195 198 203 208 202 208 210 215 206 211 211 217 216 211 213 211 213 217 214 210 213 200 206 204 220 226 234 246 227 238 246 263 255 263 273 282 290 277 264 282 286 279 255 231 220 193 196 195 195 199 179 159
162 153 137 109 258 225 202 194 188 184 184 185 185 186 189 186 187 188 187 187 192 196 192 195 190 195 194 197 203 203 207 202 201 201 200 205 207 207 207 213 204 215 211 214 219 221 215 212 210 209 213 212 211 215 206 200 202 219 226 226 237 226 234 249 248 273 272 273 268 261 273 264 233 243 258 273 273 241 200 205 191 183 200 192 174
80 87 104 105 94 79 50 3 331 208 185 188 188 187 186 187 190 188 187 190 192 194 195 195 192 192 195 198 201 201 204 199 203 204 206 204 207 208 208 207 214 222 208 220 219 220 216 212 210 213 212 212 211 214 213 199 208 218 229 219 225 220 229 246 255 265 272 265 260 263 279 283 223 222 251 260 252 241 209 216 226 204 215 202 210
134 130 137 145 131 121 129 160 184 316 253 194 185 188 190 192 189 187 186 193 193 194 194 190 190 190 196 197 196 200 201 204 208 209 211 208 208 213 207 211 220 224 216 217 220 218 216 210 214 214 211 214 212 214 213 208 215 218 224 229 222 216 217 231 237 245 253 259 264 256 265 273 270 245 240 236 220 227 219 218 227 204 216 212 201
147 148 139 144 138 126 112 110 120 120 14 318 242 198 194 192 190 186 192 193 191 191 188 185 187 193 193 192 196 199 202 209 215 217 217 215 211 211 209 216 223 226 224 222 217 218 213 212 215 214 209 213 213 213 213 211 218 219 223 229 231 225 220 222 225 233 238 236 239 250 257 259 261 253 254 238 229 224 222 228 242 224 223 229 207
144 177 146 128 109 113 121 134 136 133 124 98 320 291 225 197 191 191 195 191 190 185 181 184 186 190 191 193 196 193 201 208 217 219 223 220 219 219 212 217 221 227 228 224 225 216 211 206 215 214 205 195 216 20 284 272 303 283 276 273 257 239 231 227 225 229 235 231 233 231 248 250 249 262 276 269 244 238 243 237 248 229 216 221 200
21 21 42 32 28 30 91 144 156 145 143 158 158 97 311 286 215 181 162 137 141 148 175 183 184 186 191 196 195 194 200 206 212 218 221 221 225 224 221 220 219 223 223 220 218 213 205 203 177 164 164 166 167 170 175 185 194 195 185 210 250 259 252 239 235 236 239 233 232 235 241 246 249 243 260 266 264 252 242 234 239 246 236 230 227
45 39 90 125 153 147 172 167 168 162 152 156 161 152 136 139 138 128 128 128 126 117 134 165 178 186 187 196 195 200 206 212 213 218 216 217 222 224 222 223 218 220 220 219 217 214 208 176 190 196 190 177 184 199 202 203 211 212 211 209 217 235 250 255 246 239 239 232 225 228 233 231 233 233 241 251 261 259 236 240 234 234 229 214 251
95 93 112 151 204 196 149 161 165 166 156 156 159 160 162 155 152 161 159 151 150 147 147 148 155 164 158 120 84 84 71 53 28 5 334 284 238 225 227 227 216 217 221 222 220 215 187 176 197 211 206 188 193 199 206 213 218 226 227 235 233 229 234 243 249 246 239 236 229 227 231 229 223 227 226 239 218 234 230 240 239 232 236 220 242
132 144 146 171 198 190 174 176 172 162 168 168 165 168 164 161 161 165 161 157 154 145 147 150 150 151 137 130 129 117 113 114 116 100 93 12 336 312 272 239 228 225 224 224 222 193 173 185 199 208 203 196 199 208 206 207 213 223 217 238 243 244 239 238 245 249 246 238 237 232 232 232 224 226 225 224 214 212 215 230 240 200 204 203 229
142 80 79 52 347 347 322 204 178 173 170 166 172 174 171 166 176 175 167 166 157 162 155 157 157 135 128 142 146 147 145 152 155 167 186 185 231 322 320 283 250 235 233 222 207 193 186 188 191 200 199 195 203 210 215 214 211 206 213 228 240 247 248 249 244 249 252 246 240 234 234 233 232 234 240 243 240 232 224 214 236 205 202 191 202
52 44 75 91 106 121 130 228 248 189 176 171 172 171 162 161 164 168 175 177 168 162 163 160 158 147 146 155 162 162 161 161 165 171 187 189 181 182 274 297 278 251 234 221 204 198 198 193 193 194 199 201 203 209 211 208 209 212 210 219 234 249 255 256 252 246 251 252 247 240 239 244 248 258 263 271 272 258 240 231 236 221 196 191 194
138 168 154 148 139 126 130 154 164 153 157 209 178 160 155 150 135 127 116 99 128 145 147 144 119 155 162 166 166 167 168 157 158 168 177 184 173 161 179 203 254 300 289 247 207 202 196 192 194 197 201 205 212 215 205 205 210 215 218 219 226 237 249 251 251 251 252 256 257 251 242 239 240 242 232 242 259 247 234 239 243 242 228 217 205
183 125 95 96 108 108 111 118 114 163 158 156 145 119 64 111 130 130 122 94 70 84 89 100 127 221 181 176 168 158 152 163 182 184 178 161 152 162 187 166 171 196 89 48 349 343 338 326 247 204 200 211 216 213 203 201 207 220 242 253 244 240 242 247 245 245 249 255 260 256 240 247 247 232 194 200 172 145 117 188 235 248 249 234 221
30 41 56 62 51 55 65 64 68 86 90 103 140 141 143 139 121 103 94 86 85 52 57 83 101 246 197 182 162 145 163 179 185 179 163 165 169 167 165 152 59 46 81 109 118 117 125 112 347 314 283 238 209 35 17 347 328 291 239 226 233 236 235 237 237 243 260 343 324 310 271 248 243 246 218 202 165 144 129 102 78 49 127 6 155
42 56 54 40 44 46 39 33 16 47 78 98 100 121 126 125 129 122 120 114 107 112 109 94 74 303 297 106 110 151 187 199 191 165 144 150 143 105 74 69 93 110 134 159 168 174 190 200 191 195 214 31 29 18 13 350 320 282 260 232 227 227 225 218 227 243 245 224 230 239 249 244 226 221 226 210 168 160 136 135 122 108 75 87 73
21 29 38 46 44 42 38 31 21 10 22 23 35 46 79 89 99 109 114 109 104 91 91 96 104 64 41 55 94 152 210 223 201 117 83 55 34 34 25 14 48 143 145 147 23 20 24 36 51 74 80 79 310 359 333 289 275 269 267 240 213 194 113 80 251 239 247 258 262 263 259 279 244 217 212 254 208 166 151 160 156 115 88 77 81
31 39 45 45 49 50 46 50 44 35 27 30 19 19 60 70 55 75 91 91 92 89 74 59 39 18 11 9 11 329 254 255 152 109 95 85 102 102 169 250 235 209 124 91 101 135 101 89 101 115 131 124 172 309 323 320 306 301 285 256 234 171 177 195 214 211 206 240 239 234 195 204 275 251 255 13 316 187 142 156 155 141 76 98 95
33 42 46 45 45 48 46 51 52 39 21 19 36 48 48 56 79 48 54 89 91 90 97 102 97 79 45 22 137 101 313 317 357 70 113 162 176 151 195 222 224 173 150 182 146 84 55 31 49 95 190 174 115 15 1 351 349 347 328 291 278 237 219 221 213 195 216 230 229 222 194 186 207 275 24 70 49 86 125 134 150 166 205 213 49
42 40 50 45 46 53 55 59 58 59 37 32 43 39 44 39 47 79 62 40 56 74 86 99 105 121 130 208 299 299 112 41 25 80 72 108 184 161 180 211 180 135 142 130 100 65 74 104 122 126 48 67 57 13 15 6 12 9 0 309 280 252 222 220 209 202 192 189 212 230 192 144 149 123 44 56 54 75 120 115 147 167 217 251 32
55 55 58 57 53 55 51 45 38 26 13 30 42 55 56 54 42 39 68 64 39 27 31 44 87 113 106 39 315 356 8 47 80 104 124 154 181 143 166 183 186 163 153 132 115 121 145 109 56 55 60 65 71 34 32 26 28 24 10 359 334 286 242 229 219 193 141 98 95 85 83 110 133 148 100 73 72 80 114 114 106 112 159 234 186
58 61 63 63 53 56 53 41 27 17 15 8 22 56 56 56 60 60 57 67 77 70 61 81 90 93 89 89 84 84 68 7 335 1 78 69 51 37 68 137 145 156 214 63 103 120 97 78 86 88 94 100 111 84 58 50 36 26 18 22 27 16 1 336 315 245 112 130 128 141 106 75 61 45 30 32 55 68 100 129 132 144 166 146 160
48 62 67 70 65 56 47 38 23 15 10 10 25 49 39 36 52 49 38 55 82 77 66 60 59 61 63 59 60 55 55 66 64 61 52 51 39 39 41 40 56 72 74 75 81 83 89 83 75 75 68 38 49 60 41 45 33 26 27 28 38 21 8 7 356 274 167 163 161 139 129 113 67 26 346 328 324 329 320 166 172 163 134 142 196
56 55 54 80 74 60 52 45 25 23 14 9 37 50 38 31 31 4 352 4 15 13 25 57 69 69 63 59 50 54 51 58 68 63 69 58 42 36 27 45 66 69 81 81 84 95 102 93 75 63 68 61 23 18 27 36 47 36 32 36 42 44 33 42 29 37 25 5 16 62 90 64 47 11 318 291 271 270 268 237 156 161 183 205 200
49 69 74 76 79 67 60 39 31 28 24 20 28 48 40 38 13 336 345 4 20 35 42 57 63 60 55 49 51 54 52 57 73 79 69 64 54 55 48 27 44 68 64 69 49 54 72 86 86 65 47 42 38 23 24 26 32 39 33 31 30 41 50 55 42 8 8 27 317 332 23 354 21 2 331 296 254 223 225 184 174 180 172 185 169
88 67 61 66 79 82 75 57 37 34 31 33 24 48 46 29 339 336 2 10 30 56 63 62 61 64 71 74 65 56 50 44 31 44 63 60 61 60 66 32 63 67 77 71 56 59 70 73 77 65 43 36 19 29 23 16 18 31 38 30 26 29 47 66 79 350 339 327 287 280 277 288 281 227 325 324 293 240 230 200 183 171 178 166 183
91 72 69 81 84 78 73 69 46 40 41 41 36 46 46 339 318 347 354 10 48 60 60 58 62 64 61 74 74 63 56 52 52 46 47 40 41 37 58 46 59 75 83 99 96 82 67 59 53 44 31 19 20 19 26 17 16 12 19 17 23 26 29 24 26 3 333 310 299 295 291 278 270 279 288 16 312 283 234 179 162 169 180 189 189
96 105 100 74 80 74 69 68 54 19 49 50 52 42 41 351 15 360 5 22 50 56 58 55 64 69 65 71 82 81 72 56 53 52 49 45 39 31 40 49 45 52 74 97 103 92 72 50 66 39 24 20 18 23 14 11 12 5 7 3 5 12 11 13 16 354 346 341 322 318 305 290 274 275 273 256 264 277 239 152 162 174 172 162 199
63 78 106 107 98 94 75 64 56 11 36 53 51 35 15 19 15 15 12 32 45 50 56 45 42 53 56 46 57 78 77 73 61 65 61 49 38 41 49 37 28 19 37 57 68 74 74 74 65 46 30 31 23 22 30 10 4 356 354 355 12 12 8 358 350 346 340 325 322 320 316 311 290 274 258 237 232 219 201 172 158 152 148 145 131
131 130 86 91 90 84 93 102 88 349 20 37 36 25 15 25 15 15 21 41 46 46 52 50 41 43 46 62 56 46 44 60 65 67 57 50 48 49 67 70 48 44 352 22 72 77 71 57 58 26 12 9 11 12 11 16 13 5 357 345 7 9 340 337 342 340 327 322 338 349 359 1 13 8 37 126 120 119 76 79 95 97 98 100 100
174 85 95 96 75 83 7 359 319 22 33 27 2 357 357 5 16 11 34 45 36 48 48 43 42 48 45 57 64 67 70 69 62 57 73 73 58 62 46 78 55 35 39 16 345 72 87 101 88 27 350 34 9 335 345 328 309 300 321 328 319 315 328 317 321 316 295 316 344 5 9 6 14 29 50 67 82 80 84 81 73 82 85 88 90
257 94 29 79 93 93 113 324 314 346 14 35 9 346 349 359 8 6 45 61 54 49 44 27 38 42 64 56 56 59 65 77 77 83 77 86 84 67 63 56 59 59 51 45 47 33 35 36 58 88 7 4 2 350 326 317 319 318 315 338 312 322 329 317 312 324 11 25 22 32 22 20 20 37 48 48 55 64 66 75 77 74 71 72 69